Effective Sunday, March 17, 2024, the National Weather Service National Data Buoy Center will discontinue its Dial-A-Buoy Interactive Voice Response system. For more information, see Service Change Notice 24-06 (PDF).

Station WPOW1 - West Point, WA Image indicating link to RSS feed of recent meteorological observations for station WPOW1


Conditions at WPOW1 as of
(10:00 pm PST on 03/01/2024)
0600 GMT on 03/02/2024:
     

Click on the graph icon in the table below to see a time series plot of the last five days of that observation.

5-day plot - Wind Direction Wind Direction (WDIR): NW ( 320 deg true )
5-day plot - Wind Speed Wind Speed (WSPD): 4 kts
5-day plot - Wind Gust Wind Gust (GST): 5 kts
5-day plot - Atmospheric Pressure Atmospheric Pressure (PRES):29.32 in
5-day plot - Pressure Tendency Pressure Tendency (PTDY):-0.09 in ( Falling Rapidly )
5-day plot - Air Temperature Air Temperature (ATMP): 41.2 °F
5-day plot - Dew Point Dew Point (DEWP): 40.8 °F
5-day plot - Wind Chill Wind Chill (CHILL): 38.1 °F
5-day plot - Wind Speed at 10 Meters Wind Speed at 10 meters (WSPD10M): 4 kts
5-day plot - Wind Speed at 20 Meters Wind Speed at 20 meters (WSPD20M): 4 kts
5-day plot -  Wind Speed, Wind Gust and Atmospheric Pressure Combined plot of Wind Speed, Gust, and Air Pressure
Continuous Winds
TIME
(PST)
5-day plot - Wind Direction WDIR 5-day plot - Wind Speed WSPD
10:00 pmNW ( 315 deg ) 4 kts
9:50 pmNW ( 309 deg ) 5 kts
9:40 pmNNW ( 327 deg ) 7 kts
9:30 pmNNW ( 345 deg ) 5 kts
9:20 pmNNE ( 24 deg ) 4 kts
9:10 pmNE ( 35 deg ) 4 kts
 
Peak gust during the measurement hour
TIME
(PST)
5-day plot - Gust Direction GDR 5-day plot - Gust Speed GST
9:31 pmNNW ( 330 deg ) 10 kts
Previous observations
TIME
(PST)
5-day plot - Wind Direction
WDIR
 
5-day plot - Wind Speed
WSPD
kts
5-day plot - Wind Gust
GST
kts
5-day plot - Wave Height
WVHT
ft
5-day plot - Dominant Wave Period
DPD
sec
5-day plot - Average Wave Period
APD
sec
5-day plot - Mean Wave Direction
MWD
 
5-day plot - Atmospheric Pressure
PRES
in
5-day plot - Pressure Tendency
PTDY
in
5-day plot - Air Temperature
ATMP
°F
5-day plot - Water Temperature
WTMP
°F
5-day plot - Dew Point
DEWP
°F
5-day plot - Salinity
SAL
psu
5-day plot - Visibility
VIS
nmi
5-day plot - Tide (above MLLW)
TIDE
ft
2024-03-01 09:00 pm NE 3 4----29.34-0.11 39.7- 36.9---
2024-03-01 08:00 pmENE 5 7----29.37-0.09 39.6- 37.2---
2024-03-01 07:00 pm E 3 4----29.41-0.06 40.5- 37.0---
2024-03-01 06:00 pm S 5 5----29.45-0.05 41.4- 36.5---
2024-03-01 05:00 pm S 16 17----29.46-0.04 42.6- 38.5---
2024-03-01 04:00 pmSSE 15 16----29.48-0.01 41.5- 37.9---
2024-03-01 03:00 pmSSE 13 15----29.50+0.00 40.6- 38.5---
2024-03-01 02:00 pmSSE 11 14----29.50+0.00 38.1- 38.1---
2024-03-01 01:00 pm SE 10 12----29.49+0.00 37.2- 36.3---
2024-03-01 12:00 pm S 15 17----29.50+0.00 39.6- 36.1---
2024-03-01 11:00 am S 17 20----29.49-0.01 41.9- 33.6---
2024-03-01 10:00 am S 18 21----29.49-0.03 41.9- 33.1---
2024-03-01 09:00 am S 21 23----29.49-0.01 41.7- 34.5---
2024-03-01 08:00 am S 25 27----29.51+0.00 41.0- 34.7---
2024-03-01 07:00 am S 18 20----29.52+0.02 39.4- 37.0---
2024-03-01 06:00 amSSE 14 15----29.50+0.00 40.5- 37.6---
2024-03-01 05:00 am S 25 28----29.50+0.00 39.6- 37.4---
2024-03-01 04:00 am S 26 28----29.50+0.01 41.2- 36.9---
2024-03-01 03:00 am S 24 26----29.50+0.02 40.8- 37.6---
2024-03-01 02:00 am S 26 29----29.50+0.03 40.8- 39.4---
2024-03-01 01:00 am S 28 31----29.49+0.00 40.6- 38.7---
2024-03-01 12:00 am S 26 28----29.48-0.01 41.4- 38.5---
2024-02-29 11:00 pm S 18 20----29.47-0.02 41.0- 40.3---
2024-02-29 10:00 pmSSE 12 13----29.48-0.01 38.1- 38.1---